Погода в Таре

Погода в Таре : погода сейчас, прогноз погоды и архив. Всё, что Вы хотите узнать о погоде в Таре!

Хотите узнать прогноз погоды в Таре? Тогда Вам сюда: Погода в Таре

Поиск расширенной информации на нашем сайте:

Другие новости

Новости СМИ2

Главная страница сайта

Новости сайта

02.10.2013

Напоминаем, что на нашем новом сайте вы можете получить высокодетализированные прогнозы погоды по пунктам России, СНГ и мира (включающие важные для авиации метеовеличины, такие как направление и скорость ветра, видимость, явления погоды, количество и форма облачности, нижняя и верхняя граница облачности), а также ознакомиться с разнообразными материалами по авиационной метеорологии и подборкой полезных ссылок на эту тему.

Сайт Метеоцентр.Азия посвящён разработке технологий оптимизации авиаметеорологического обслуживания, включая проектирование и перспективное создание нескольких автоматизированных авиаметеорологических систем:
- система выпуска высокодетальных прогностических карт явлений погоды для нижнего воздушного пространства по России и ближнему зарубежью;
- система верификации прогнозов TAF (выпускаемых синоптиками официальных АМСГ РФ и ближнего зарубежья) и AUTOTAF (выпускаемых сайтом Метеоцентр.Азия) - выявление ошибок, онлайн-сопоставление с фактической погодой METAR, автоматическое внесение коррективов в прогнозы при резком отклонении фактической погоды от прогноза, подсчёт оправдываемости прогнозов по элементам и в целом;
- система обработки, анализа и отображения авиаметеорологической информации для применения провайдерами метеорологической информации.

Рекомендуем: планировка таунхаусов

Погода в Таре - сегодня

Время (UTC), дата Ветер
(°,м/с) 
Видим.   Явления Облачность Т
(°С)
Тd
(°С)
f(%) Тe
(°С)
Pmin
(гПа)
dP
(гПа)
Po
(мм)
O2
(г/м3)
Тmin Tmax R s Состояние
почвы
03 26.04.17 150 (ЮВ) 20000 м    9/0 средняя 
[Ac As]
+12.9 +2.6 50 +13  1017  -0.3  756  291  +7.1        мокрая 
06 26.04.17 150 (ЮВ) 20000 м    10/0 средняя, верхняя 
[Ac lent|Cs]
+15.4 +2.4 42 +15  1016  -0.9  755  288           
09 26.04.17 240 (ЮЗ) 20000 м    9/3 300 м кучево-дожд., средняя, верхняя 
[Cb cap|Ac lent|Ci sp]
+18.7 +2.4 34 +20  1014.7  -1.2  755  284           
12 26.04.17 тихо ()   10 км  слаб. ливневой дождь  10/5 300 м кучево-дожд., средняя 
[Cb cap|Ac lent]
+15.4 +8.2 62 +15  1013.6  -1.1  754  286           
15 26.04.17 030 (СВ) 20000 м  {ливн. осадки}  10/1 1000 м кучево-дожд., средняя 
[Cb cap|Ac As]
+12.5 +9.5 82 +14  1011.3  -2.5  752  288    +20  0.8     
18 26.04.17 030 (СВ) 10 км  {ливн. осадки}  ясно 
+9.4 +5.7 78 +10  1008.4  -3  750  291           
00 27.04.17 030 (СВ) 10 км  слаб. ливневой дождь  10/5 600 м кучево-дожд., средняя 
[Cb cap|As op]
+9 +7.7 92 +10  1007.9  -1.1  749  291           
03 27.04.17 290 (З) 10 км  слаб. ливневой дождь  10/10 210 м кучево-дожд. 
[Cb cap]
+9.9 +8.6 92 +9  1009.7  1.7  751  290  +9      мокрая 
06 27.04.17 330 (СЗ) 20000 м  {ливн. осадки}  10/10 240 м кучево-дожд. 
[Cb cap]
+10.5 +8.6 88 +10  1012.3  2.6  753  290           
12 27.04.17 350 (С) 4{10}  10 км  слаб. ливневой дождь  10/10 720 м кучево-дожд. 
[Cb cap]
+5.6 +3.9 89 +4  1019.4  3.4  758  299           
15 27.04.17 330 (СЗ) 20000 м  {ливн. осадки}  9/1 600 м кучево-дожд., средняя 
[Cb cap|Ac lent]
+5.3 +3 85 +5  1021.6  2.2  759  300    +11     
18 27.04.17 330 (СЗ) 10 км  {ливн. осадки}  9/9 1080 м 
[Sc]
+4.3 +1 79 +3  1023.7  761  302           
21 27.04.17 350 (С) 10 км    9/0 средняя 
[Ac und]
+3.3 -0.5 76 +2  1024.1  0.3  761  303           
00 28.04.17 350 (С) 20000 м    4/0 средняя 
[Ac cast]
+0.8 -1.7 83 1025  0.8  762  306           
03 28.04.17 030 (СВ) 20000 м    9/0 верхняя 
[Ci sp]
+3.5 -2 67 +4  1024.8  -0.1  762  303  +0.8        мокрая 
06 28.04.17 280 (З) 20000 м    3/0 верхняя 
[Ci fib]
+8.4 -1 52 +9  1023.3  -1.3  761  297           
09 28.04.17 250 (З) 20000 м    ясно 
+12.9 -2.9 33 +13  1021.1  -2  759  292           
12 28.04.17 210 (ЮЗ) 20000 м    6/0 верхняя 
[Ci fib]
+14.4 -2.6 31 +14  1018.5  -2.5  757  290           
15 28.04.17 190 (Ю) 20000 м    ясно 
+11.6 -0.1 44 +12  1017.6  -1  757  292    +14.7       
18 28.04.17 190 (Ю) 10 км    ясно 
+10.5 +0.9 51 +10  1016.4  -1.3  756  293           
21 28.04.17 200 (Ю) 10 км    ясно 
+11.3 +1.5 51 +11  1014.1  -2.2  754  292           
00 29.04.17 250 (З) 20000 м    10/3 600 м кучево-дожд., средняя, верхняя 
[Cb cap|Ac trans|Ci fib]
+10.1 +2.4 59 +10  1013.8  -0.3  754  293           
03 29.04.17 330 (СЗ) 20000 м    10/3 300 м средняя 
[Cu hum|Ac und]
+9.9 +4.3 68 +9  1015.5  1.7  755  293  +9.9         
06 29.04.17 290 (З) 5{10}  20000 м    8/6 600 м средняя 
[Cu med, cong|Ac trans]
+11.6 +0.7 47 +11  1017.3  1.8  756  292  +9.2         
12 29.04.17 310 (СЗ) 5{12}  20000 м    8/4 600 м кучево-дожд., верхняя 
[Cb cap|Ci fib]
+11.6 -7.4 26 +11  1018.6  0.7  757  293           
Время (UTC), дата Ветер
(°,м/с) 
Видим.   Явления Облачность Т
(°С)
Тd
(°С)
f(%) Тe
(°С)
Pmin
(гПа)
dP
(гПа)
Po
(мм)
O2
(г/м3)
Тmin Tmax R s Состояние
почвы

Для получения пояснительной информации подведите курсор к названию столбца.

ПОГОДА в Таре - архив

Всё, что Вы хотите узнать о погоде в Таре - удобно и подробно!

Выберите нужную дату (начиная с 1 января 2015* года) и нажмите кнопку "Найти".
Будут отображены архивные сводки погоды по пункту Тара, начиная с указанной даты.


Отображать данные в формате CSV (для использования в таблицах Excel)


Внимание! Наш архив погоды предназначен исключительно для личного некоммерческого использования в познавательных целях. Если Вам необходимы официальные справки о состоянии погоды (для производственных, юридических, коммерческих и т.п. целей), обращайтесь в органы Росгидромета.

*Примечание: данная дата относится к архиву по метеостанциям СССР (Россия, СНГ, Балтия).
Архив по метеостанциям Зарубежной Европы и Азии (кроме Китая) хранится 10 дней, по другим регионам земного шара (Китай, Африка, Америка, Австралия, Океания) - 1 день.

Тара - район местоположения метеостанции


Название, широта, долгота, высота метеостанции:
Тара 56.9°ш. 74.4°д. 73 м над ур. моря [Российская Федерация]

Дополнительная информация

В oтличие oт бoльшинства пoгoдных сайтoв мы публикуем пoдрoбную метеoинфoрмацию в детальнoм прoфессиoнальнoм фoрмате.

Характеристики температуры и влажнoсти вoздуха измеряются на высoте 2 м в тени вдали oт зданий и деревьев.
Скoрoсть ветра измеряется на высoте 10 м (на урoвне рoста челoвека скoрoсть ветра ниже в 1.5-2 раза). Если метеoстанция нахoдится в гoрoде или в лесу, тo скoрoсть ветра занижена на 2-4 м/с пo сравнению с oткрытым местoм. Скoрoсть ветра над акватoриями крупных рек и oзёр, а также на вершинах хoлмoв на 2-5 м/с выше, чем в oбычных услoвиях.
Атмoсфернoе давление в разных тoчках местнoсти мoжет значительнo oтличаться oт давления на метеoстанции, в зависимoсти oт услoвий рельефа (при пoдъёме на 10 м давление пoнижается примернo на 1 мм рт.ст.).